| time (UTC) | temp C | wind direction | speed KPH | gust KPH | rain 1hr cm | rain 24hr cm | rain mn cm | humidity % | barometer mb |
| 20260503200124 | 17 | 333 | 6.4 | 16.1 | 0.00 | 0.00 | 0.00 | 31 | 1023.0 |
| 20260503195621 | 17 | 6 | 0.0 | 14.5 | 0.00 | 0.00 | 0.00 | 31 | 1023.0 |
| 20260503195118 | 17 | 321 | 4.8 | 16.1 | 0.00 | 0.00 | 0.00 | 32 | 1023.3 |
| 20260503194610 | 17 | 309 | 1.6 | 14.5 | 0.00 | 0.00 | 0.00 | 32 | 1022.9 |
| 20260503194110 | 17 | 158 | 4.8 | 4.8 | 0.00 | 0.00 | 0.00 | 30 | 1023.1 |
| 20260503193607 | 17 | 336 | 9.7 | 14.5 | 0.00 | 0.00 | 0.00 | 29 | 1023.1 |
| 20260503193102 | 18 | 296 | 4.8 | 16.1 | 0.00 | 0.00 | 0.00 | 28 | 1023.3 |
| 20260503192558 | 17 | 336 | 9.7 | 24.1 | 0.00 | 0.00 | 0.00 | 32 | 1023.4 |
| 20260503192054 | 17 | 313 | 4.8 | 14.5 | 0.00 | 0.00 | 0.00 | 31 | 1023.3 |
| 20260503191551 | 17 | 301 | 3.2 | 8.0 | 0.00 | 0.00 | 0.00 | 31 | 1023.6 |
| 20260503191048 | 17 | 62 | 3.2 | 16.1 | 0.00 | 0.00 | 0.00 | 30 | 1023.6 |
| 20260503190545 | 16 | 21 | 0.0 | 14.5 | 0.00 | 0.00 | 0.00 | 29 | 1023.6 |
| 20260503190042 | 16 | 350 | 4.8 | 22.5 | 0.00 | 0.00 | 0.00 | 31 | 1023.7 |
| 20260503185539 | 17 | 312 | 9.7 | 16.1 | 0.00 | 0.00 | 0.00 | 30 | 1023.7 |
| 20260503185038 | 17 | 245 | 3.2 | 8.0 | 0.00 | 0.00 | 0.00 | 30 | 1024.0 |
| 20260503184535 | 16 | 32 | 3.2 | 14.5 | 0.00 | 0.00 | 0.00 | 31 | 1024.0 |
| 20260503184031 | 16 | 66 | 9.7 | 14.5 | 0.00 | 0.00 | 0.00 | 29 | 1024.2 |
| 20260503183528 | 16 | 333 | 4.8 | 11.3 | 0.00 | 0.00 | 0.00 | 32 | 1024.0 |
| 20260503183025 | 16 | 6 | 6.4 | 11.3 | 0.00 | 0.00 | 0.00 | 30 | 1024.0 |
| 20260503182523 | 16 | 235 | 4.8 | 11.3 | 0.00 | 0.00 | 0.00 | 29 | 1024.2 |
| 20260503182021 | 16 | 346 | 3.2 | 16.1 | 0.00 | 0.00 | 0.00 | 32 | 1024.3 |
| 20260503181518 | 15 | 359 | 3.2 | 8.0 | 0.00 | 0.00 | 0.00 | 34 | 1024.3 |
| 20260503181014 | 16 | 21 | 1.6 | 14.5 | 0.00 | 0.00 | 0.00 | 33 | 1024.4 |
| 20260503180512 | 16 | 281 | 3.2 | 8.0 | 0.00 | 0.00 | 0.00 | 32 | 1024.4 |
| 20260503180008 | 16 | 10 | 1.6 | 11.3 | 0.00 | 0.00 | 0.00 | 31 | 1024.5 |
| 20260503175506 | 16 | 336 | 6.4 | 11.3 | 0.00 | 0.00 | 0.00 | 32 | 1024.5 |
| 20260503175002 | 16 | 353 | 14.5 | 22.5 | 0.00 | 0.00 | 0.00 | 30 | 1024.6 |
| 20260503174501 | 15 | 312 | 8.0 | 11.3 | 0.00 | 0.00 | 0.00 | 33 | 1024.6 |
| 20260503173956 | 15 | 347 | 3.2 | 11.3 | 0.00 | 0.00 | 0.00 | 34 | 1024.8 |
| 20260503173451 | 16 | 9 | 3.2 | 11.3 | 0.00 | 0.00 | 0.00 | 33 | 1024.9 |
| 20260503172948 | 16 | 288 | 4.8 | 8.0 | 0.00 | 0.00 | 0.00 | 36 | 1025.2 |
| 20260503172446 | 16 | 15 | 3.2 | 8.0 | 0.00 | 0.00 | 0.00 | 31 | 1025.3 |
| 20260503171942 | 15 | 5 | 1.6 | 4.8 | 0.00 | 0.00 | 0.00 | 32 | 1025.4 |
| 20260503171439 | 15 | 317 | 6.4 | 11.3 | 0.00 | 0.00 | 0.00 | 31 | 1025.5 |
| 20260503170937 | 16 | 353 | 3.2 | 8.0 | 0.00 | 0.00 | 0.00 | 33 | 1025.3 |
| 20260503170432 | 16 | 320 | 3.2 | 8.0 | 0.00 | 0.00 | 0.00 | 29 | 1025.6 |
| 20260503150825 | 13 | 338 | 4.8 | 4.8 | 0.00 | 0.00 | 0.00 | 35 | 1026.3 |
| 20260503150321 | 13 | 273 | 4.8 | 11.3 | 0.00 | 0.00 | 0.00 | 34 | 1026.4 |
| 20260503140245 | 11 | 16 | 8.0 | 14.5 | 0.00 | 0.00 | 0.00 | 41 | 1026.5 |
| 20260503131215 | 8 | 358 | 0.0 | 3.2 | 0.00 | 0.00 | 0.00 | 63 | 1026.5 |
| 20260503130713 | 7 | 355 | 0.0 | 3.2 | 0.00 | 0.00 | 0.00 | 65 | 1026.5 |
| 20260503130210 | 7 | 355 | 3.2 | 4.8 | 0.00 | 0.00 | 0.00 | 65 | 1026.4 |
| 20260503120135 | 1 | 35 | 0.0 | 0.0 | 0.00 | 0.00 | 0.00 | 98 | 1026.2 |
| 20260503110602 | 0 | 35 | 0.0 | 0.0 | 0.00 | 0.00 | 0.00 | 97 | 1025.6 |
| 20260503090450 | 0 | 35 | 0.0 | 0.0 | 0.00 | 0.00 | 0.00 | 96 | 1024.9 |
| 20260503081416 | 0 | 35 | 0.0 | 0.0 | 0.00 | 0.00 | 0.00 | 94 | 1024.7 |
| 20260503080913 | 0 | 35 | 0.0 | 0.0 | 0.00 | 0.00 | 0.00 | 94 | 1024.7 |
| 20260503080410 | 1 | 35 | 0.0 | 0.0 | 0.00 | 0.00 | 0.00 | 94 | 1024.5 |
| 20260503072846 | 1 | 37 | 0.0 | 0.0 | 0.00 | 0.00 | 0.00 | 92 | 1024.5 |
| 20260503072343 | 1 | 32 | 0.0 | 0.0 | 0.00 | 0.00 | 0.00 | 92 | 1024.4 |
| 20260503071839 | 1 | 32 | 0.0 | 0.0 | 0.00 | 0.00 | 0.00 | 92 | 1024.4 |
| 20260503071337 | 1 | 32 | 0.0 | 0.0 | 0.00 | 0.00 | 0.00 | 91 | 1024.5 |
| 20260503070833 | 1 | 32 | 0.0 | 0.0 | 0.00 | 0.00 | 0.00 | 91 | 1024.3 |
| 20260503070331 | 1 | 33 | 0.0 | 0.0 | 0.00 | 0.00 | 0.00 | 90 | 1024.5 |
| 20260503060302 | 3 | 33 | 0.0 | 0.0 | 0.00 | 0.00 | 0.00 | 82 | 1024.4 |
| 20260503054750 | 3 | 32 | 0.0 | 0.0 | 0.00 | 0.00 | 0.00 | 79 | 1024.5 |
| 20260503054246 | 3 | 32 | 0.0 | 0.0 | 0.00 | 0.00 | 0.00 | 79 | 1024.5 |
| 20260503053744 | 3 | 32 | 0.0 | 0.0 | 0.00 | 0.00 | 0.00 | 77 | 1024.8 |
| 20260503053243 | 3 | 32 | 0.0 | 0.0 | 0.00 | 0.00 | 0.00 | 77 | 1024.5 |
| 20260503052738 | 3 | 32 | 0.0 | 0.0 | 0.00 | 0.00 | 0.00 | 76 | 1024.7 |
| 20260503052235 | 4 | 32 | 0.0 | 0.0 | 0.00 | 0.00 | 0.00 | 75 | 1024.7 |
| 20260503051730 | 4 | 32 | 0.0 | 0.0 | 0.00 | 0.00 | 0.00 | 75 | 1024.4 |
| 20260503051228 | 4 | 31 | 0.0 | 0.0 | 0.00 | 0.00 | 0.00 | 74 | 1024.4 |
| 20260503050724 | 5 | 32 | 0.0 | 0.0 | 0.00 | 0.00 | 0.00 | 73 | 1024.5 |
| 20260503050221 | 5 | 33 | 0.0 | 0.0 | 0.00 | 0.00 | 0.00 | 72 | 1024.7 |
| 20260503045719 | 5 | 31 | 0.0 | 0.0 | 0.00 | 0.00 | 0.00 | 71 | 1024.5 |
| 20260503045216 | 5 | 30 | 0.0 | 0.0 | 0.00 | 0.00 | 0.00 | 70 | 1024.5 |
| 20260503044712 | 5 | 30 | 0.0 | 0.0 | 0.00 | 0.00 | 0.00 | 69 | 1024.5 |
| 20260503044210 | 5 | 29 | 0.0 | 0.0 | 0.00 | 0.00 | 0.00 | 69 | 1024.6 |
| 20260503043706 | 5 | 33 | 0.0 | 0.0 | 0.00 | 0.00 | 0.00 | 69 | 1024.5 |
| 20260503043204 | 5 | 45 | 0.0 | 3.2 | 0.00 | 0.00 | 0.00 | 69 | 1024.4 |
| 20260503042659 | 6 | 41 | 0.0 | 0.0 | 0.00 | 0.00 | 0.00 | 72 | 1024.4 |
| 20260503042156 | 6 | 22 | 0.0 | 0.0 | 0.00 | 0.00 | 0.00 | 70 | 1024.4 |
| 20260503041652 | 5 | 33 | 0.0 | 0.0 | 0.00 | 0.00 | 0.00 | 70 | 1024.3 |
| 20260503041150 | 6 | 35 | 0.0 | 0.0 | 0.00 | 0.00 | 0.00 | 71 | 1024.2 |
| 20260503040648 | 6 | 39 | 0.0 | 0.0 | 0.00 | 0.00 | 0.00 | 71 | 1024.2 |
| 20260503040145 | 6 | 135 | 1.6 | 4.8 | 0.00 | 0.00 | 0.00 | 73 | 1024.2 |
| 20260503035641 | 6 | 19 | 0.0 | 0.0 | 0.00 | 0.00 | 0.00 | 71 | 1024.2 |
| 20260503035139 | 5 | 9 | 0.0 | 0.0 | 0.00 | 0.00 | 0.00 | 75 | 1024.3 |
| 20260503034636 | 5 | 37 | 0.0 | 0.0 | 0.00 | 0.00 | 0.00 | 82 | 1024.3 |
| 20260503034133 | 5 | 35 | 0.0 | 0.0 | 0.00 | 0.00 | 0.00 | 83 | 1024.3 |
| 20260503033630 | 5 | 35 | 0.0 | 0.0 | 0.00 | 0.00 | 0.00 | 84 | 1024.4 |
| 20260503033128 | 5 | 32 | 0.0 | 0.0 | 0.00 | 0.00 | 0.00 | 83 | 1024.1 |
| 20260503032626 | 5 | 32 | 0.0 | 0.0 | 0.00 | 0.00 | 0.00 | 83 | 1024.0 |
| 20260503032125 | 5 | 31 | 0.0 | 0.0 | 0.00 | 0.00 | 0.00 | 85 | 1023.9 |
| 20260503031622 | 5 | 31 | 0.0 | 0.0 | 0.00 | 0.00 | 0.00 | 85 | 1024.2 |
| 20260503031119 | 5 | 32 | 0.0 | 0.0 | 0.00 | 0.00 | 0.00 | 85 | 1024.2 |
| 20260503030615 | 5 | 27 | 0.0 | 0.0 | 0.00 | 0.00 | 0.00 | 84 | 1024.2 |
| 20260503030112 | 5 | 20 | 0.0 | 0.0 | 0.00 | 0.00 | 0.00 | 84 | 1024.1 |
| 20260503025609 | 5 | 20 | 0.0 | 0.0 | 0.00 | 0.00 | 0.00 | 84 | 1024.2 |
| 20260503025107 | 5 | 21 | 0.0 | 0.0 | 0.00 | 0.00 | 0.00 | 83 | 1023.9 |
| 20260503024603 | 5 | 21 | 0.0 | 0.0 | 0.00 | 0.00 | 0.00 | 82 | 1024.0 |
| 20260503024100 | 5 | 9 | 0.0 | 0.0 | 0.00 | 0.00 | 0.00 | 82 | 1023.6 |
| 20260503023556 | 5 | 9 | 0.0 | 0.0 | 0.00 | 0.00 | 0.00 | 82 | 1023.9 |
| 20260503023054 | 6 | 8 | 0.0 | 0.0 | 0.00 | 0.00 | 0.00 | 81 | 1023.8 |
| 20260503022550 | 6 | 34 | 0.0 | 0.0 | 0.00 | 0.00 | 0.00 | 79 | 1023.6 |
| 20260503022044 | 6 | 35 | 0.0 | 0.0 | 0.00 | 0.00 | 0.00 | 79 | 1023.6 |
| 20260503021542 | 6 | 36 | 0.0 | 0.0 | 0.00 | 0.00 | 0.00 | 79 | 1023.5 |
| 20260503021038 | 6 | 33 | 0.0 | 0.0 | 0.00 | 0.00 | 0.00 | 77 | 1023.4 |
| 20260503020536 | 6 | 33 | 0.0 | 0.0 | 0.00 | 0.00 | 0.00 | 76 | 1023.1 |
| 20260503020033 | 6 | 34 | 0.0 | 0.0 | 0.00 | 0.00 | 0.00 | 74 | 1023.3 |
| 20260503015529 | 7 | 35 | 0.0 | 0.0 | 0.00 | 0.00 | 0.00 | 73 | 1023.4 |
| 20260503015027 | 7 | 29 | 0.0 | 0.0 | 0.00 | 0.00 | 0.00 | 71 | 1023.4 |
| 20260503014522 | 7 | 29 | 0.0 | 0.0 | 0.00 | 0.00 | 0.00 | 70 | 1023.2 |
| 20260503014021 | 7 | 27 | 0.0 | 0.0 | 0.00 | 0.00 | 0.00 | 69 | 1023.1 |
| 20260503013517 | 7 | 27 | 0.0 | 0.0 | 0.00 | 0.00 | 0.00 | 67 | 1023.1 |
| 20260503013015 | 8 | 27 | 0.0 | 0.0 | 0.00 | 0.00 | 0.00 | 66 | 1023.0 |
| 20260503012513 | 8 | 28 | 0.0 | 0.0 | 0.00 | 0.00 | 0.00 | 65 | 1022.9 |
| 20260503012009 | 8 | 28 | 0.0 | 0.0 | 0.00 | 0.00 | 0.00 | 64 | 1022.8 |
| 20260503011506 | 9 | 29 | 0.0 | 0.0 | 0.00 | 0.00 | 0.00 | 62 | 1022.9 |
| 20260503011003 | 9 | 27 | 0.0 | 0.0 | 0.00 | 0.00 | 0.00 | 57 | 1022.9 |
| 20260503010459 | 9 | 13 | 0.0 | 0.0 | 0.00 | 0.00 | 0.00 | 59 | 1022.6 |
| 20260503005956 | 10 | 11 | 0.0 | 0.0 | 0.00 | 0.00 | 0.00 | 58 | 1022.7 |
| 20260503005453 | 10 | 9 | 0.0 | 0.0 | 0.00 | 0.00 | 0.00 | 57 | 1022.8 |
| 20260503004950 | 10 | 33 | 0.0 | 0.0 | 0.00 | 0.00 | 0.00 | 56 | 1022.7 |
| 20260503004447 | 10 | 10 | 0.0 | 0.0 | 0.00 | 0.00 | 0.00 | 56 | 1022.6 |
| 20260503003945 | 10 | 16 | 0.0 | 0.0 | 0.00 | 0.00 | 0.00 | 54 | 1022.6 |
| 20260503003441 | 10 | 3 | 0.0 | 0.0 | 0.00 | 0.00 | 0.00 | 54 | 1022.6 |
| 20260503002938 | 10 | 352 | 0.0 | 0.0 | 0.00 | 0.00 | 0.00 | 55 | 1022.4 |
| 20260503002435 | 10 | 10 | 0.0 | 3.2 | 0.00 | 0.00 | 0.00 | 52 | 1022.5 |
| 20260503001932 | 10 | 10 | 0.0 | 0.0 | 0.00 | 0.00 | 0.00 | 51 | 1022.3 |
| 20260503001428 | 10 | 30 | 0.0 | 0.0 | 0.00 | 0.00 | 0.00 | 50 | 1022.2 |
| 20260503000926 | 10 | 26 | 0.0 | 3.2 | 0.00 | 0.00 | 0.00 | 52 | 1022.2 |
| 20260503000423 | 10 | 17 | 0.0 | 0.0 | 0.00 | 0.00 | 0.00 | 54 | 1022.3 |
| 20260502235920 | 10 | 39 | 3.2 | 4.8 | 0.00 | 0.00 | 0.00 | 49 | 1022.2 |
| 20260502235417 | 11 | 27 | 0.0 | 0.0 | 0.00 | 0.00 | 0.00 | 50 | 1022.2 |
| 20260502234914 | 11 | 16 | 3.2 | 8.0 | 0.00 | 0.00 | 0.00 | 49 | 1022.0 |
| 20260502234411 | 11 | 4 | 1.6 | 3.2 | 0.00 | 0.00 | 0.00 | 49 | 1022.0 |
| 20260502233908 | 11 | 280 | 1.6 | 4.8 | 0.00 | 0.00 | 0.00 | 48 | 1021.9 |
| 20260502233403 | 11 | 23 | 0.0 | 3.2 | 0.00 | 0.00 | 0.00 | 49 | 1022.1 |
| 20260502232901 | 11 | 50 | 6.4 | 11.3 | 0.00 | 0.00 | 0.00 | 47 | 1021.7 |
| 20260502232357 | 11 | 16 | 0.0 | 0.0 | 0.00 | 0.00 | 0.00 | 48 | 1021.9 |
| 20260502231854 | 11 | 24 | 3.2 | 3.2 | 0.00 | 0.00 | 0.00 | 48 | 1021.8 |
| 20260502231351 | 12 | 9 | 0.0 | 4.8 | 0.00 | 0.00 | 0.00 | 47 | 1021.9 |
| 20260502230849 | 12 | 138 | 1.6 | 3.2 | 0.00 | 0.00 | 0.00 | 46 | 1021.8 |
| 20260502230347 | 12 | 109 | 1.6 | 3.2 | 0.00 | 0.00 | 0.00 | 46 | 1021.9 |
| 20260502225844 | 12 | 178 | 3.2 | 4.8 | 0.00 | 0.00 | 0.00 | 48 | 1022.0 |
| 20260502225340 | 12 | 13 | 3.2 | 4.8 | 0.00 | 0.00 | 0.00 | 47 | 1022.1 |
| 20260502224837 | 12 | 9 | 0.0 | 4.8 | 0.00 | 0.00 | 0.00 | 50 | 1022.1 |
| 20260502224333 | 12 | 28 | 0.0 | 3.2 | 0.00 | 0.00 | 0.00 | 49 | 1022.0 |
| 20260502223831 | 12 | 5 | 1.6 | 8.0 | 0.00 | 0.00 | 0.00 | 47 | 1022.0 |
| 20260502223329 | 12 | 15 | 0.0 | 8.0 | 0.00 | 0.00 | 0.00 | 46 | 1022.1 |
| 20260502222827 | 12 | 338 | 6.4 | 16.1 | 0.00 | 0.00 | 0.00 | 46 | 1022.1 |
| 20260502222324 | 13 | 24 | 1.6 | 3.2 | 0.00 | 0.00 | 0.00 | 44 | 1022.1 |
| 20260502221819 | 12 | 33 | 1.6 | 3.2 | 0.00 | 0.00 | 0.00 | 46 | 1022.1 |
| 20260502221316 | 12 | 345 | 1.6 | 3.2 | 0.00 | 0.00 | 0.00 | 45 | 1022.0 |
| 20260502220813 | 12 | 29 | 0.0 | 11.3 | 0.00 | 0.00 | 0.00 | 46 | 1022.0 |
| 20260502220309 | 12 | 63 | 0.0 | 3.2 | 0.00 | 0.00 | 0.00 | 46 | 1022.0 |
| 20260502215806 | 12 | 22 | 0.0 | 4.8 | 0.00 | 0.00 | 0.00 | 47 | 1022.1 |
| 20260502215304 | 12 | 307 | 1.6 | 4.8 | 0.00 | 0.00 | 0.00 | 47 | 1021.9 |
| 20260502214800 | 12 | 106 | 0.0 | 3.2 | 0.00 | 0.00 | 0.00 | 47 | 1022.0 |
| 20260502214256 | 12 | 17 | 0.0 | 4.8 | 0.00 | 0.00 | 0.00 | 47 | 1021.9 |
| 20260502213754 | 12 | 69 | 0.0 | 3.2 | 0.00 | 0.00 | 0.00 | 49 | 1021.9 |
| 20260502213251 | 12 | 47 | 0.0 | 4.8 | 0.00 | 0.00 | 0.00 | 47 | 1022.0 |
| 20260502212750 | 12 | 10 | 1.6 | 4.8 | 0.00 | 0.00 | 0.00 | 48 | 1021.7 |
| 20260502212248 | 12 | 320 | 0.0 | 3.2 | 0.00 | 0.00 | 0.00 | 47 | 1021.9 |
| 20260502211743 | 12 | 38 | 1.6 | 8.0 | 0.00 | 0.00 | 0.00 | 47 | 1021.9 |
| 20260502211240 | 12 | 280 | 3.2 | 8.0 | 0.00 | 0.00 | 0.00 | 47 | 1021.7 |
| 20260502210737 | 12 | 135 | 3.2 | 11.3 | 0.00 | 0.00 | 0.00 | 47 | 1021.8 |
| 20260502210235 | 12 | 340 | 0.0 | 8.0 | 0.00 | 0.00 | 0.00 | 46 | 1021.8 |
| 20260502205732 | 13 | 13 | 0.0 | 3.2 | 0.00 | 0.00 | 0.00 | 46 | 1022.0 |
| 20260502205228 | 12 | 21 | 4.8 | 4.8 | 0.00 | 0.00 | 0.00 | 45 | 1021.8 |
| 20260502204725 | 12 | 295 | 1.6 | 8.0 | 0.00 | 0.00 | 0.00 | 45 | 1021.7 |
| 20260502204223 | 13 | 35 | 4.8 | 11.3 | 0.00 | 0.00 | 0.00 | 43 | 1021.9 |
| 20260502203720 | 13 | 221 | 3.2 | 8.0 | 0.00 | 0.00 | 0.00 | 43 | 1021.9 |
| 20260502203218 | 13 | 45 | 0.0 | 3.2 | 0.00 | 0.00 | 0.00 | 44 | 1021.9 |
| 20260502202712 | 13 | 154 | 3.2 | 8.0 | 0.00 | 0.00 | 0.00 | 42 | 1022.0 |
| 20260502202211 | 12 | 20 | 3.2 | 4.8 | 0.00 | 0.00 | 0.00 | 44 | 1022.1 |
| 20260502201708 | 13 | 339 | 0.0 | 3.2 | 0.00 | 0.00 | 0.00 | 44 | 1022.3 |
| 20260502201204 | 12 | 24 | 0.0 | 3.2 | 0.00 | 0.00 | 0.00 | 48 | 1022.1 |
| 20260502200700 | 12 | 324 | 3.2 | 4.8 | 0.00 | 0.00 | 0.00 | 48 | 1022.3 |